User: anonymous   Login
Location: Turtle Rock Observatory
(36.6913°N, 81.9708°W)
Time: 12:46:27
(UTC-04:00)
Language:

Cosmos 1125 Rocket - Orbit

View from above orbital plane
View from above orbital plane
View from above satellite
View from above satellite

Ground track
Ground track

The orbit data is extracted from the following two-line orbital elements,

1 11511U 79078B   17206.25077007 +.00000027 +00000-0 +17993-4 0  9996
2 11511 074.0355 245.3405 0014531 122.0999 238.1567 14.36777048983823
Epoch (UTC): 25 July 2017 06:01:06
Eccentricity: 0.0014531
inclination: 74.0355°
perigee height: 759 km
apogee height: 779 km
right ascension of ascending node: 245.3405°
argument of perigee: 122.0999°
revolutions per day: 14.36777048
mean anomaly at epoch: 238.1567°
orbit number at epoch: 98382

The dashed part of the orbit path shows where the satellite is in the earth's shadow,  

DLR